Погода в Слуцке

Погода в Слуцке : погода сейчас, прогноз погоды и архив. Всё, что Вы хотите узнать о погоде в Слуцке!

Хотите узнать прогноз погоды в Слуцке? Тогда Вам сюда: Погода в Слуцке

Поиск расширенной информации на нашем сайте:

Полезная информация: Детальное описание документы необходимые для изготовления печати ооо на сайте.

Другие новости

Новости СМИ2

Главная страница сайта

Новости сайта

02.10.2013

Напоминаем, что на нашем новом сайте вы можете получить высокодетализированные прогнозы погоды по пунктам России, СНГ и мира (включающие важные для авиации метеовеличины, такие как направление и скорость ветра, видимость, явления погоды, количество и форма облачности, нижняя и верхняя граница облачности), а также ознакомиться с разнообразными материалами по авиационной метеорологии и подборкой полезных ссылок на эту тему.

Сайт Метеоцентр.Азия посвящён разработке технологий оптимизации авиаметеорологического обслуживания, включая проектирование и перспективное создание нескольких автоматизированных авиаметеорологических систем:
- система выпуска высокодетальных прогностических карт явлений погоды для нижнего воздушного пространства по России и ближнему зарубежью;
- система верификации прогнозов TAF (выпускаемых синоптиками официальных АМСГ РФ и ближнего зарубежья) и AUTOTAF (выпускаемых сайтом Метеоцентр.Азия) - выявление ошибок, онлайн-сопоставление с фактической погодой METAR, автоматическое внесение коррективов в прогнозы при резком отклонении фактической погоды от прогноза, подсчёт оправдываемости прогнозов по элементам и в целом;
- система обработки, анализа и отображения авиаметеорологической информации для применения провайдерами метеорологической информации.

Рекомендуем: Купить броненакладки апекс коллекция престиж купить.

Погода в Слуцке - сегодня

Время (UTC), дата Ветер
(°,м/с) 
Видим.   Явления Облачность Т
(°С)
Тd
(°С)
f(%) Тe
(°С)
Pmin
(гПа)
dP
(гПа)
Po
(мм)
O2
(г/м3)
Тmin Tmax R s Состояние
почвы
03 29.03.15 110 (В) 14000 м    9/3 600 м средняя 
[Sc|Ac und]
+6.6 -2.8 51 +6  1012.1  -0.7  744  293           
06 29.03.15 140 (ЮВ) 10 км    9/9 1200 м 
[Sc]
+5.8 -4.8 46 +5  1011.8  -0.4  744  294  +5.8         
09 29.03.15 140 (ЮВ) 4{10}  10 км    10/10 540 м кучево-дожд. 
[Cb cap]
+2.6 -0.4 81 +1  1011.5  -0.5  744  297           
12 29.03.15 140 (ЮВ) 5000 м  слаб. ливневой дождь со снегом  10/10 570 м кучево-дожд. 
[Cb cap]
+1.3 -0.4 88 1010.1  -1.5  743  298           
15 29.03.15 140 (ЮВ) 12000 м  {ливн. осадки}  9/9 720 м 
[Sc]
+1.3 -3.6 70 1008.6  -1.5  741  298      0.0     
18 29.03.15 140 (ЮВ) 10 км  {ливн. осадки}  10/10 360 м 
[St]
+0.4 -2.6 80 -1  1008.2  -0.5  741  298    +5.9  0.0     
21 29.03.15 150 (ЮВ) 12000 м    10/10 300 м 
[St]
-0.4 -2.2 88 -3  1006  -2.1  739  299           
00 30.03.15 160 (Ю) 12000 м    10/10 240 м 
[St]
-0.5 -2.3 88 -1  1003.5  -2.3  738  298           
03 30.03.15 160 (Ю) 10 км    10/10 240 м 
[St]
-0.5 -2 89 -2  1000.1  -3.3  735  297           
06 30.03.15 130 (ЮВ) 11000 м    9/9 500 м 
[Sc]
+0.5 -0.3 94 -2  997.8  -2.2  733  295  -0.8         
09 30.03.15 150 (ЮВ) 5-10  10 км  в посл. час дождь{снег}  10/10 300 м 
[St]
+2.3 +1.3 93 995  -2.7  731  292           
12 30.03.15 170 (Ю) 4{10}  8000 м  слаб. дождь{снег}  10/10 240 м 
[Frnb|Ns]
+5.1 +4.2 94 +3  993  -1.7  730  288           
15 30.03.15 180 (Ю) 3800 м  дождь  10/10 330 м 
[Frnb|Ns]
+7.4 +6.2 92 +7  993.3  0.4  730  285         
18 30.03.15 160 (Ю) 10 км  {дождь}  5/0 верхняя 
[Ci sp]
+5.4 +4.2 92 +5  995.7  2.3  732  289    +7.5     
21 30.03.15 160 (Ю) 8000 м  дымка  6/6 600 м 
[Sc]
+5.8 +5.1 95 +6  996.2  0.5  733  288           
00 31.03.15 240 (ЮЗ) 6000 м  слаб. дождь  10/10 210 м 
[Frnb|Ns]
+5.8 +5.3 97 +4  996.2  733  288           
03 31.03.15 230 (ЮЗ) 3{11}  7000 м  в посл. час дождь  10/10 240 м 
[St]
+3 +2.5 97 +2  997.9  1.4  734  292         
06 31.03.15 240 (ЮЗ) 10 км  {дождь}  9/9 600 м средняя 
[Sc|Ac und]
+3.6 +2.1 90 +2  998.8  0.9  734  292  +2.6       
09 31.03.15 250 (З) 15000 м    9/9 600 м 
[Sc]
+6.1 +1.9 74 +4  998.5  -0.1  734  289           
12 31.03.15 220 (ЮЗ) 18000 м  в посл. час ливневой дождь  9/9 600 м кучево-дожд. 
[Cb cap]
+7.1 +1.7 68 +5  997.4  -1  733  288           
15 31.03.15 190 (Ю) 5{11}  18000 м  слаб. ливневой дождь  9/9 600 м кучево-дожд. 
[Cb cap]
+7.3 +0.9 64 +6  995.2  -2.1  732  287      0.3     
18 31.03.15 150 (ЮВ) 3{10}  15000 м  {ливн. осадки}  4/0 средняя 
[Ac trans]
+5.6 +0.5 70 +5  993.8  -1.5  731  288    +8.7  0.3     
21 31.03.15 160 (Ю) 9000 м  слаб. дождь  9/9 480 м 
[Sc]
+3.7 +2.2 90 +2  992.2  -1.8  729  290           
00 01.04.15 180 (Ю) 8000 м  слаб. дождь  10/10 360 м 
[Ns]
+3.8 +2.6 92 +2  989.6  -2.5  728  289           
03 01.04.15 190 (Ю) 10 км  {дождь}  10/10 300 м 
[St]
+3.9 +2.9 93 +3  988.2  -1.4  726  288         
Время (UTC), дата Ветер
(°,м/с) 
Видим.   Явления Облачность Т
(°С)
Тd
(°С)
f(%) Тe
(°С)
Pmin
(гПа)
dP
(гПа)
Po
(мм)
O2
(г/м3)
Тmin Tmax R s Состояние
почвы

Для получения пояснительной информации подведите курсор к названию столбца.

ПОГОДА в Слуцке - архив

Всё, что Вы хотите узнать о погоде в Слуцке - удобно и подробно!

Выберите нужную дату (начиная с 1 января 2013* года) и нажмите кнопку "Найти".
Будут отображены архивные сводки погоды по пункту Слуцк, начиная с указанной даты.


Отображать данные в формате CSV (для использования в таблицах Excel)


Внимание! Наш архив погоды предназначен исключительно для личного некоммерческого использования в познавательных целях. Если Вам необходимы официальные справки о состоянии погоды (для производственных, юридических, коммерческих и т.п. целей), обращайтесь в органы Росгидромета.

*Примечание: данная дата относится к архиву по метеостанциям СССР (Россия, СНГ, Балтия).
Архив по метеостанциям Зарубежной Европы и Азии (кроме Китая) хранится 10 дней, по другим регионам земного шара (Китай, Африка, Америка, Австралия, Океания) - 1 день.

Слуцк - район местоположения метеостанции


Название, широта, долгота, высота метеостанции:
Слуцк 53°ш. 27.6°д. 162 м над ур. моря [Беларусь]

Дополнительная информация

В oтличие oт бoльшинства пoгoдных сайтoв мы публикуем пoдрoбную метеoинфoрмацию в детальнoм прoфессиoнальнoм фoрмате.

Характеристики температуры и влажнoсти вoздуха измеряются на высoте 2 м в тени вдали oт зданий и деревьев.
Скoрoсть ветра измеряется на высoте 10 м (на урoвне рoста челoвека скoрoсть ветра ниже в 1.5-2 раза). Если метеoстанция нахoдится в гoрoде или в лесу, тo скoрoсть ветра занижена на 2-4 м/с пo сравнению с oткрытым местoм. Скoрoсть ветра над акватoриями крупных рек и oзёр, а также на вершинах хoлмoв на 2-5 м/с выше, чем в oбычных услoвиях.
Атмoсфернoе давление в разных тoчках местнoсти мoжет значительнo oтличаться oт давления на метеoстанции, в зависимoсти oт услoвий рельефа (при пoдъёме на 10 м давление пoнижается примернo на 1 мм рт.ст.).